Terminal Aerodrome Forecast
Issued by NWS

Home | Current Version | Previous Version | Text Only | Print | Product List | Glossary On
Versions: 1 2 3 4 5 6 7 8 9 10 11 12 13 14 15 16 17 18 19 20 21 22 23 24 25 26 27 28 29 30 31 32 33 34 35 36 37 38 39 40 41 42 43 44 45 46 47 48 49 50
000
FTUS44 KFWD 230250 AAT
TAFDAL
TAF AMD
KDAL 230250Z 2303/2324 16014KT P6SM SCT050
     FM231200 27005KT P6SM VCTS BKN012CB
      TEMPO 2313/2315 4SM -TSRA BR BKN010CB
     FM231500 34017G27KT P6SM VCTS BKN015CB
     FM231800 34017KT P6SM VCSH OVC017
     FM232000 35016G26KT P6SM OVC020=

USA.gov is the U.S. government's official web portal to all federal, state and local government web resources and services.